sat.trackr.live / text

‹ back to catalog

STARLINK-37628

NORAD 69823 · 2026-154E

PAYLOAD ACTIVE UNKNOWN

§ Identity

Operator
Country
US
Launch date
2026-07-05
Launch site
AFETR
Launch vehicle
Mass (kg)
RCS (m²)

Purposes: comms

External: N2YO · Heavens-Above · Gunter

§ Orbital elements

Epoch: 2026-09-20T04:14:21.252768Z

Period
93.85 min
Inclination
53.1586°
Eccentricity
0.0001173
Mean motion
15.34392057 rev/d
Perigee alt
461.9 km
Apogee alt
463.5 km
Semi-major
6,840.9 km
B*
4.6989e-4
RAAN
333.5761°
Arg perigee
94.4788°
Mean anomaly
265.6348°
Rev number
1,318

§ Raw data

STARLINK-376281 69823U 26154E   26263.17663487  .00015529  00000+0  46989-3 0  99972 69823  53.1586 333.5761 0001173  94.4788 265.6348 15.34392057 13184

JSON: /api/v1/satellites/69823 · /tle

For live sub-satellite position, see the globe view (requires WebGL).

§ Visibility from observer

Set your observer location to see the next 7 days of passes ≥ 10°. The values pass through the URL so the page stays shareable.

No JS? Fill the form by hand. The geolocation button needs JavaScript.